Location: Newark
(30.1000°N, 109.4667°E)
Time: 00:40:06
(UTC+00:00)

Courier 1B Rocket - Pass Details

Date: 22 February 2020
Orbit: 920 x 1202 km, 28.2° (Epoch: 06 April)

Event Time Altitude Azimuth Distance (km) Brightness Sun altitude
Exits shadow 22:45:51 - 262° (W) 3,114 7.0 -7.2°
Reaches altitude 10° 22:46:49 10° 257° (WSW) 2,856 6.9 -6.9°
Maximum altitude 22:52:12 24° 206° (SSW) 2,093 6.6 -5.8°
Drops below altitude 10° 22:57:52 10° 156° (SSE) 3,011 8.1 -4.6°
Sets 23:01:20 0° 143° (SE) 4,010 9.0 -3.8°
